User: anonymous   Login
Location: Unspecified
(40.7945°N, 0.0000°E)
Time: 00:29:13
(UTC+00:00)
Language:

Courier 1B - Orbit

View from above orbital plane
View from above orbital plane
View from above satellite
View from above satellite

Ground track
Ground track

The orbit data is extracted from the following two-line orbital elements,

1 00058U 60013A   21125.45698990  .00000105  00000-0  25890-4 0  9998
2 00058  28.3279 261.0191 0165004 215.1998 143.7550 13.46326664982046
Epoch (UTC): 05 May 2021 10:58:03
Eccentricity: 0.0165004
inclination: 28.3279°
perigee height: 962 km
apogee height: 1209 km
right ascension of ascending node: 261.0191°
argument of perigee: 215.1998°
revolutions per day: 13.46326664
mean anomaly at epoch: 143.7550°
orbit number at epoch: 98204

The dashed part of the orbit path shows where the satellite is in the earth's shadow,  

DLR